This demonstration page uses our WeatherBlox Daily Observations layout. Learn more.

Left ArrowRight Arrow

38.20091, -84.87328

Hourly Observations for December 7, 2022

Temp ( °F °C ) Dew Point ( °F °C ) Humidity (%) Winds ( mph kmh ) Pressure ( in mb ) Visibility ( mi km ) Precip ( " mm )
12:53 am 00:53 Cloudy with Light Rain 66 18.9 63 17.2 90 90 SSW 10 17 29.99 1016 5 8 0.06 1.52
1:12 am 01:12 Cloudy with Light Rain 66 18.9 63 17.2 90 90 WSW 7 11 29.99 1016 4 6 0.05 1.27
1:53 am 01:53 Cloudy with Light Rain 65 18.3 63 17.2 93 93 WSW 5 7 30.02 1017 5 8 0.08 2.03
2:06 am 02:06 Cloudy 64 17.8 63 17.2 96 96 Calm 30.02 1016 10 16 0.01 0.13
2:15 am 02:15 Cloudy 64 17.8 63 17.2 96 96 W 5 7 30.03 1017 10 16 0.01 0.13
2:27 am 02:27 Cloudy 64 17.8 62 16.7 93 93 W 5 7 30.02 1016 10 16 0.01 0.13
2:36 am 02:36 Cloudy 64 17.8 62 16.7 93 93 W 6 9 30.03 1017 10 16 0.01 0.13
2:53 am 02:53 Cloudy 64 17.8 62 16.7 93 93 W 5 7 30.04 1017 10 16 0.01 0.13
3:08 am 03:08 Cloudy 63 17.2 61 16.1 93 93 WNW 7 11 30.04 1017 10 16 0.00 0.00
3:29 am 03:29 Cloudy 63 17.2 61 16.1 93 93 WNW 7 11 30.05 1018 10 16 0.00 0.00
3:40 am 03:40 Cloudy 62 16.7 60 15.6 93 93 WNW 7 11 30.05 1018 10 16 0.00 0.00
3:48 am 03:48 Cloudy 63 17 61 16 94 94 WNW 7 11 30.05 1018 10 16 0.00 0.00
3:53 am 03:53 Cloudy 62 16.7 60 15.6 93 93 WNW 6 9 30.04 1017 9 14 0.00 0.00
4:53 am 04:53 Cloudy 60 15.6 58 14.4 93 93 WNW 5 7 30.07 1018 10 16 0.00 0.00
5:43 am 05:43 Cloudy 59 15 58 14.4 96 96 Calm 30.08 1019 9 14 0.00 0.00
5:53 am 05:53 Cloudy 59 15 57 13.9 93 93 Calm 30.08 1019 7 11 0.00 0.00
6:21 am 06:21 Cloudy 59 15 57 13.9 93 93 Calm 30.10 1019 7 11 0.00 0.00
6:53 am 06:53 Cloudy 58 14.4 57 13.9 97 97 WNW 5 7 30.10 1019 9 14 0.00 0.00
7:13 am 07:13 Cloudy 58 14.4 56 13.3 93 93 WNW 3 6 30.11 1020 10 16 0.00 0.00
7:20 am 07:20 Cloudy 58 14.4 56 13.3 93 93 NW 5 7 30.12 1020 10 16 0.00 0.00
7:53 am 07:53 Cloudy 58 14.4 56 13.3 93 93 Calm 30.11 1020 10 16 0.00 0.00
8:32 am 08:32 Mostly Cloudy with Mist and Fog 57 13.9 56 13.3 96 96 NW 3 6 30.14 1021 5 8 0.00 0.00
8:53 am 08:53 Mostly Cloudy with Mist and Fog 57 13.9 56 13.3 96 96 Calm 30.14 1021 6 10 0.00 0.00
9:53 am 09:53 Cloudy with Mist and Fog 57 13.9 55 12.8 93 93 NNW 6 9 30.16 1021 6 10 0.00 0.00
10:37 am 10:37 Cloudy with Mist and Fog 57 13.9 56 13.3 96 96 NW 3 6 30.18 1022 3 4 0.00 0.00
10:46 am 10:46 Cloudy with Mist and Fog 57 13.9 56 13.3 96 96 WNW 3 6 30.18 1022 4 6 0.00 0.00
10:53 am 10:53 Cloudy with Mist and Fog 57 13.9 56 13.3 96 96 NW 5 7 30.17 1022 3 5 0.00 0.00
11:04 am 11:04 Cloudy with Mist and Fog 57 13.9 56 13.3 96 96 NW 6 9 30.19 1022 3 4 0.00 0.00
11:20 am 11:20 Cloudy with Mist and Fog 57 13.9 55 12.8 93 93 VRB 3 6 30.19 1022 4 6 0.00 0.00
11:53 am 11:53 Partly Cloudy with Mist and Fog 57 13.9 55 12.8 93 93 Calm 30.17 1022 6 10 0.00 0.00
12:14 pm 12:14 Cloudy with Mist and Fog 57 13.9 55 12.8 93 93 WNW 3 6 30.19 1022 4 6 0.00 0.00
12:53 pm 12:53 Cloudy 57 13.9 55 12.8 93 93 WNW 7 11 30.17 1022 8 13 0.00 0.00
1:14 pm 13:14 Cloudy 57 13.9 55 12.8 93 93 W 5 7 30.19 1022 9 14 0.00 0.00
1:53 pm 13:53 Cloudy 57 13.9 54 12.2 89 89 WNW 6 9 30.18 1022 10 16 0.00 0.00
2:53 pm 14:53 Cloudy 56 13.3 53 11.7 90 90 NNW 7 11 30.18 1022 10 16 0.00 0.00
3:53 pm 15:53 Cloudy 55 12.8 52 11.1 89 89 NW 7 11 30.21 1023 10 16 0.00 0.00
4:53 pm 16:53 Cloudy 54 12.2 50 10 86 86 NW 6 9 30.23 1024 10 16 0.00 0.00
5:53 pm 17:53 Cloudy 53 11.7 50 10 89 89 NW 7 11 30.27 1025 10 16 0.00 0.00
6:53 pm 18:53 Cloudy 52 11.1 49 9.4 89 89 N 7 11 30.28 1026 10 16 0.00 0.00
7:53 pm 19:53 Cloudy 52 11.1 49 9.4 89 89 N 6 9 30.30 1026 10 16 0.00 0.00
8:53 pm 20:53 Cloudy 51 10.6 48 8.9 89 89 N 6 9 30.31 1026 9 14 0.00 0.00
9:53 pm 21:53 Cloudy 51 10.6 48 8.9 89 89 NE 3 6 30.32 1027 10 16 0.00 0.00
10:51 pm 22:51 Cloudy 52 11 46 8 82 82 ENE 3 6 30.32 1027 10 16 0.00 0.00
10:53 pm 22:53 Cloudy 51 10.6 47 8.3 86 86 NE 5 7 30.31 1026 10 16 0.00 0.00
11:13 pm 23:13 Cloudy 51 10.6 48 8.9 89 89 ENE 3 6 30.32 1027 10 16 0.00 0.00
11:53 pm 23:53 Cloudy 51 10.6 47 8.3 86 86 NE 6 9 30.32 1027 9 14 0.00 0.00

Powered by AerisWeather